GFSFLT2_500_rhum_141.txt.gz
RH
28 19 16 16 14 6 6 6 6 6 5 5 5 5 5 4 5 5 5 6 8 10 9 9 4 18 32 31 17 48 43 88
24 21 19 18 15 13 10 7 6 6 6 6 6 6 6 5 4 5 5 5 7 9 8 10 5 14 23 29 34 56 57 82
22 21 20 20 21 21 15 9 7 6 6 6 7 7 6 5 5 5 5 5 5 8 8 10 6 10 13 40 44 50 51 67
30 29 28 26 23 24 27 23 14 9 7 7 6 7 6 6 5 5 5 6 5 7 8 8 10 10 17 46 68 59 60 69
36 37 36 35 33 35 36 32 28 22 17 13 8 7 6 6 6 6 6 7 6 5 8 8 11 14 16 26 51 44 59 66
43 44 43 44 42 43 44 42 35 31 28 24 17 14 11 9 9 8 8 8 8 4 8 8 10 24 22 22 45 78 71 84
52 49 51 52 49 62 53 50 43 37 32 29 27 22 18 16 15 12 9 10 10 6 6 10 10 27 36 25 21 33 80 86
64 64 60 57 57 56 56 56 49 41 36 35 37 33 26 21 22 17 12 13 12 8 6 12 9 26 37 30 29 37 69 74
46 59 75 76 65 64 61 64 61 54 47 40 38 39 33 29 29 26 22 17 13 12 6 12 8 30 47 32 37 23 56 83
57 66 73 85 80 97 79 73 71 71 65 56 51 48 42 40 36 35 29 22 17 13 8 11 8 30 48 46 48 38 36 89
22 28 46 65 85 75 80 75 86 89 82 79 74 73 58 55 38 38 39 26 22 15 14 11 9 36 60 57 54 40 38 65
25 27 31 55 70 80 85 82 72 77 94 95 95 82 71 69 48 37 36 30 24 20 19 13 17 50 71 65 64 49 26 45
16 24 35 65 77 91 88 70 76 76 69 90 98 91 65 61 51 38 44 32 32 29 22 21 19 37 76 63 65 50 19 33
8 11 17 23 62 87 100 95 80 84 92 94 96 94 90 65 57 63 60 46 41 45 28 23 12 17 74 88 48 40 23 16
6 6 6 7 7 18 54 71 98 91 96 92 92 94 92 89 77 82 88 89 89 90 40 24 17 31 92 97 83 45 40 18
5 5 5 5 6 8 11 15 79 85 74 100 95 91 78 91 95 94 95 98 90 89 48 27 25 50 95 93 100 65 51 29
6 6 5 5 7 6 9 11 65 90 96 72 60 44 72 79 85 95 97 97 89 71 72 38 25 59 87 74 80 74 57 64
12 8 6 5 5 5 8 17 27 54 100 82 96 64 85 96 92 95 88 97 95 89 76 69 34 32 62 68 55 62 82 80
11 9 10 10 25 32 67 45 21 65 91 94 97 97 99 96 84 73 80 96 88 82 68 76 54 52 65 54 51 61 97 86
11 14 19 33 42 60 62 98 50 100 94 99 95 88 77 80 80 71 86 96 94 78 54 70 74 70 68 28 35 92 100 95

GFSFLT2_500_rhum_147.txt.gz
RH
26 26 24 22 22 22 21 19 15 12 10 8 6 5 5 4 5 5 5 5 5 5 4 5 5 5 9 13 14 16 36 32
26 27 26 25 24 25 26 27 22 18 14 12 10 9 7 5 5 5 5 5 5 5 5 5 5 5 8 13 15 12 19 90
28 27 27 27 26 26 30 31 32 31 25 20 16 13 10 7 6 6 6 6 6 6 5 6 6 6 7 12 15 17 16 38
29 29 30 29 31 30 31 34 37 38 38 36 30 22 17 17 12 7 6 6 7 7 6 7 8 6 6 10 16 19 18 16
35 35 36 35 35 36 34 36 40 43 44 44 40 36 30 21 19 16 11 8 8 10 10 11 11 8 6 10 16 20 24 20
41 40 41 42 42 42 43 39 40 46 48 52 58 49 41 35 28 22 18 14 13 14 13 14 15 12 7 8 15 22 29 22
33 40 46 46 45 47 46 45 47 46 51 54 58 60 54 44 38 30 24 20 18 17 17 17 18 16 11 7 12 25 32 26
27 34 48 52 53 52 54 54 53 52 51 59 65 69 68 62 50 41 34 29 27 24 22 21 19 20 14 9 10 26 38 30
17 23 47 52 59 59 61 65 62 58 62 62 74 76 80 71 64 56 50 44 37 32 28 25 25 24 18 11 11 18 44 38
19 24 26 46 64 66 68 71 72 74 62 51 68 89 92 81 78 71 70 69 64 54 40 33 32 30 24 16 11 13 49 52
17 16 19 27 52 69 69 70 64 61 61 54 61 96 94 87 92 90 80 72 87 87 77 58 54 37 32 19 14 12 38 75
16 15 14 16 32 54 66 76 77 71 68 65 63 90 99 95 98 92 96 80 80 92 97 90 74 61 38 28 20 14 19 71
17 15 14 16 18 29 47 71 86 90 91 76 74 85 72 100 94 98 82 77 77 83 84 84 90 82 59 45 36 28 27 59
14 12 11 11 13 18 20 26 43 68 76 63 62 82 60 77 100 95 86 81 67 64 78 98 100 100 81 55 48 38 21 38
14 12 11 9 10 11 11 13 15 16 18 16 25 40 34 54 92 100 86 66 67 58 72 89 95 98 98 81 66 60 36 31
17 14 12 10 8 8 8 8 8 8 8 8 7 8 13 17 49 100 91 52 50 65 90 92 75 89 93 95 90 89 72 45
28 27 22 16 13 9 8 7 6 6 6 7 6 6 8 7 11 50 52 40 41 50 90 98 74 84 96 98 94 90 96 55
24 23 22 23 24 23 20 19 17 13 9 7 16 5 7 6 5 8 37 35 50 46 47 76 95 70 88 96 97 97 96 57
16 15 13 14 15 18 23 25 24 24 23 13 24 19 7 5 7 9 15 38 58 92 97 70 96 66 66 81 94 97 95 56
6 6 6 5 5 7 9 14 17 19 36 45 37 48 36 9 7 24 38 93 92 93 84 95 95 75 83 88 98 98 96 62

GFSFLT2_500_rhum_150.txt.gz
RH
25 24 24 22 22 21 23 24 24 21 18 16 12 9 7 6 6 5 5 4 4 4 4 4 4 4 4 5 6 10 14 39
24 24 24 23 22 22 22 25 27 30 29 27 24 18 13 11 9 8 6 6 5 5 5 5 5 4 4 5 6 10 13 21
25 26 26 27 27 25 23 25 28 32 34 34 32 30 26 21 17 14 10 7 6 5 5 4 4 5 6 7 6 10 16 26
28 27 29 29 30 30 27 25 26 31 35 38 40 38 35 33 29 23 18 13 10 8 6 6 6 7 8 8 7 8 14 23
30 31 32 36 35 34 33 34 28 29 34 38 42 44 42 41 38 33 28 22 18 15 12 11 11 11 11 10 9 7 12 22
20 28 32 39 40 40 40 38 38 34 32 34 43 45 46 47 51 44 38 32 26 21 18 17 16 16 15 14 11 8 11 22
22 22 24 34 39 43 46 44 46 43 37 35 39 49 52 51 51 54 50 43 38 32 27 24 22 20 22 19 14 10 8 20
30 28 24 24 32 40 48 51 50 50 46 39 39 47 56 65 62 55 52 50 47 42 38 34 30 26 25 23 17 14 10 12
37 30 28 24 24 33 36 56 57 56 56 50 43 44 60 62 76 79 70 62 56 49 45 41 37 35 33 31 27 20 13 10
35 24 25 25 23 41 22 26 34 52 57 52 44 47 49 63 74 91 92 78 74 66 58 51 44 43 40 49 35 24 18 15
29 25 22 24 22 19 52 57 37 28 55 60 48 47 50 45 67 91 97 82 81 86 85 72 62 57 47 50 59 37 28 24
32 32 28 23 24 19 18 63 86 22 47 68 72 41 66 62 66 82 94 72 69 70 87 88 80 73 70 52 61 62 56 33
34 32 29 27 25 24 20 17 17 21 38 74 84 73 37 83 72 72 88 62 56 55 63 71 72 76 75 68 66 71 66 68
30 29 26 22 20 17 16 16 20 20 25 49 66 55 29 73 86 65 88 83 47 36 74 74 71 65 73 87 62 75 69 74
26 28 27 22 19 15 12 12 11 18 29 37 54 66 42 30 78 87 86 97 65 64 51 74 64 69 61 80 69 63 66 73
20 23 25 27 27 23 18 12 11 10 10 13 14 24 29 14 33 55 57 70 81 45 31 73 77 44 69 52 58 50 60 69
14 16 22 24 24 28 28 25 19 14 10 8 8 9 9 10 24 33 37 37 53 70 61 30 75 82 69 98 78 61 55 60
11 14 24 25 27 29 29 29 27 21 14 12 10 11 7 16 40 27 23 36 43 48 79 75 84 95 90 98 91 74 55 75
17 17 18 21 19 16 14 17 22 26 25 17 12 10 28 27 19 35 32 22 38 49 73 81 70 97 82 96 97 63 79 72
5 6 5 5 7 6 5 5 6 10 17 23 23 18 26 36 60 58 39 28 49 64 79 98 100 90 96 92 97 89 71 56

GFSFLT2_500_rhum_153.txt.gz
RH
25 22 19 18 15 15 17 21 24 25 26 25 24 21 17 13 8 6 6 6 6 5 4 4 4 5 4 3 4 6 6 10
28 25 22 21 19 16 15 18 20 22 26 26 26 26 26 25 22 18 14 12 10 9 7 6 5 4 4 4 5 6 7 10
24 28 23 21 19 17 16 14 15 20 24 26 26 25 25 28 30 28 26 22 18 15 12 9 7 6 6 6 7 8 8 8
23 28 31 27 25 24 21 17 16 16 19 25 28 27 24 24 27 31 30 30 26 21 16 15 14 12 12 12 11 11 10 8
21 22 26 31 28 31 28 24 23 20 18 20 25 29 31 29 24 26 27 30 32 30 24 21 20 17 16 16 15 14 12 9
30 30 76 54 30 24 26 27 26 27 27 27 27 33 34 35 33 27 27 34 43 36 34 32 28 25 23 21 20 21 16 19
30 30 38 40 84 45 28 28 32 35 34 35 33 37 38 35 39 30 26 25 32 45 45 40 36 35 34 32 28 24 20 17
37 34 37 42 36 41 76 58 37 40 43 59 62 44 38 40 49 47 38 32 20 25 30 37 39 37 40 41 39 33 27 26
37 34 32 37 44 33 28 41 90 52 55 74 78 60 49 36 36 48 56 41 28 18 22 37 38 33 40 45 51 47 36 30
36 34 34 31 30 27 26 25 30 64 96 90 97 88 69 48 34 28 48 52 35 30 34 30 42 29 46 49 48 55 48 39
31 26 27 28 27 32 31 28 28 28 70 76 93 84 86 60 41 35 32 42 30 42 55 42 36 28 21 29 40 38 57 60
36 37 34 30 32 26 28 29 28 31 38 59 79 84 83 76 72 48 42 36 35 30 42 58 38 19 23 16 22 36 55 81
30 33 33 34 35 34 31 30 31 27 21 22 90 93 86 100 86 69 47 41 28 17 42 53 70 74 43 33 43 41 39 57
26 27 24 23 22 22 24 28 29 28 27 20 27 64 67 92 96 97 95 50 24 15 29 51 85 91 61 44 51 56 53 52
24 22 19 17 15 14 15 16 17 25 25 22 16 15 24 82 86 84 92 100 91 39 54 74 90 72 96 65 40 36 58 51
24 21 19 17 14 12 10 10 10 10 12 24 22 14 12 23 62 96 61 60 73 94 94 99 93 96 97 99 83 45 52 57
18 16 16 15 13 11 10 10 10 11 13 10 13 23 17 12 12 39 94 78 57 81 86 96 90 79 88 99 90 63 64 80
18 16 15 14 14 13 12 10 10 14 16 18 16 13 23 20 12 12 47 40 64 78 84 81 96 93 100 98 96 96 93 87
17 14 12 12 11 11 10 10 14 15 18 23 23 30 27 25 20 13 12 50 65 71 95 96 96 95 95 98 97 95 92 97
5 5 5 6 7 8 7 6 6 7 5 5 17 22 27 30 22 15 28 26 76 80 84 85 85 98 86 98 98 97 98 96